N5VKM Weather Reports


Display with metric or nautical units.
time (UTC)temp
F
wind
direction
speed
MPH
gust
MPH
rain 1hr
in
rain 24hr
in
rain mn
in
humidity
%
barometer
mb
20260903103541 76 334 0.0 0.0 0.01 0.01 0.01 85 1013.2
20260903103027 76 334 0.0 0.0 0.01 0.01 0.01 85 1013.2
20260903102537 76 335 0.0 0.0 0.01 0.01 0.01 85 1013.2
20260903102028 76 334 0.0 0.0 0.01 0.01 0.01 85 1013.2
20260903101539 76 333 0.0 0.0 0.01 0.01 0.01 85 1013.2
20260903101048 76 333 0.0 0.0 0.00 0.00 0.00 85 1013.1
20260903100540 76 333 0.0 0.0 0.00 0.00 0.00 85 1013.2
20260903100031 76 333 0.0 0.0 0.00 0.00 0.00 85 1013.2
20260903095540 76 334 0.0 0.0 0.00 0.00 0.00 85 1013.2
20260903095030 76 333 0.0 0.0 0.00 0.00 0.00 85 1013.1
20260903094544 77 333 0.0 0.0 0.00 0.00 0.00 85 1013.1
20260903094032 77 333 0.0 0.0 0.00 0.00 0.00 84 1013.1
20260903093538 77 333 0.0 0.0 0.00 0.00 0.00 84 1013.2
20260903093054 78 332 0.0 0.0 0.00 0.00 0.00 84 1013.3
20260903092545 78 333 0.0 0.0 0.00 0.00 0.00 83 1013.3
20260903092038 78 333 0.0 0.0 0.00 0.00 0.00 83 1013.3
20260903091532 78 333 0.0 0.0 0.00 0.00 0.00 83 1013.3
20260903091044 78 333 0.0 0.0 0.00 0.00 0.00 83 1013.4
20260903090532 78 333 0.0 0.0 0.00 0.00 0.00 83 1013.4
20260903090040 78 333 0.0 0.0 0.00 0.00 0.00 83 1013.3
20260903085548 78 333 0.0 0.0 0.00 0.00 0.00 83 1013.4
20260903085055 78 334 0.0 0.0 0.00 0.00 0.00 83 1013.3
20260903084529 78 333 0.0 0.0 0.00 0.00 0.00 83 1013.3
20260903084040 78 333 0.0 0.0 0.00 0.00 0.00 82 1013.2
20260903083550 78 333 0.0 0.0 0.00 0.00 0.00 82 1013.3
20260903083038 78 333 0.0 0.0 0.00 0.00 0.00 82 1013.2
20260903082546 78 333 0.0 0.0 0.00 0.00 0.00 82 1013.2
20260903082038 79 333 0.0 0.0 0.00 0.00 0.00 82 1013.3
20260903081547 79 333 0.0 0.0 0.00 0.00 0.00 82 1013.2
20260903081101 79 334 0.0 0.0 0.00 0.00 0.00 81 1013.2
20260903080554 79 333 0.0 0.0 0.00 0.00 0.00 81 1013.2
20260903080043 79 333 0.0 0.0 0.00 0.00 0.00 81 1013.1
20260903075550 79 333 0.0 0.0 0.00 0.00 0.00 81 1013.2
20260903075103 79 333 0.0 0.0 0.00 0.00 0.00 81 1013.1
20260903074530 79 333 0.0 0.0 0.00 0.00 0.00 80 1013.1
20260903074105 79 333 0.0 0.0 0.00 0.00 0.00 80 1013.2
20260903073531 79 333 0.0 0.0 0.00 0.00 0.00 80 1013.2
20260903073103 79 333 0.0 0.0 0.00 0.00 0.00 79 1013.2
20260903072529 80 333 0.0 0.0 0.00 0.00 0.00 79 1013.4
20260903072045 80 331 0.0 0.0 0.00 0.00 0.00 78 1013.4
20260903071535 80 333 0.0 0.0 0.00 0.00 0.00 78 1013.3
20260903071042 80 336 0.0 0.0 0.00 0.00 0.00 78 1013.3
20260903070549 80 333 0.0 0.0 0.00 0.00 0.00 78 1013.3
20260903070039 80 332 0.0 0.0 0.00 0.00 0.00 78 1013.3
20260903065609 80 332 0.0 0.0 0.00 0.00 0.00 78 1013.4
20260903065102 80 333 0.0 0.0 0.00 0.00 0.00 78 1013.4
20260903064532 80 334 0.0 0.0 0.00 0.00 0.00 78 1013.4
20260903064102 80 333 0.0 0.0 0.00 0.00 0.00 77 1013.4
20260903063531 80 333 0.0 0.0 0.00 0.00 0.00 77 1013.4
20260903063058 80 333 0.0 0.0 0.00 0.00 0.00 77 1013.5
20260903062548 80 332 0.0 0.0 0.00 0.00 0.00 77 1013.5
20260903062039 80 332 0.0 0.0 0.00 0.00 0.00 77 1013.6
20260903061536 80 332 0.0 0.0 0.00 0.00 0.00 77 1013.6
20260903061106 80 333 0.0 0.0 0.00 0.00 0.00 77 1013.7
20260903060537 80 333 0.0 0.0 0.00 0.00 0.00 77 1013.7
20260903060046 80 334 0.0 0.0 0.00 0.00 0.00 77 1013.7
20260903055536 80 333 0.0 0.0 0.00 0.00 0.00 76 1013.8
20260903055047 80 333 0.0 0.0 0.00 0.00 0.00 76 1013.9
20260903054535 80 333 0.0 0.0 0.00 0.00 0.00 76 1013.9
20260903054049 80 333 0.0 0.0 0.00 0.00 0.00 76 1014.0
20260903053537 81 333 0.0 0.0 0.00 0.00 0.00 75 1014.1
20260903053047 81 332 0.0 0.0 0.00 0.00 0.00 75 1014.2
20260903052534 81 332 0.0 0.0 0.00 0.00 0.00 75 1014.3
20260903052046 81 333 0.0 0.0 0.00 0.00 0.00 74 1014.2
20260903051556 81 333 0.0 0.0 0.00 0.00 0.00 74 1014.3
20260903051047 82 333 0.0 0.0 0.00 0.00 0.00 73 1014.3
20260903050538 82 333 0.0 0.0 0.00 0.00 0.00 72 1014.3
20260903050045 82 333 0.0 0.0 0.00 0.00 0.00 72 1014.3
20260903045533 82 333 0.0 0.0 0.00 0.00 0.00 71 1014.3
20260903045047 83 333 0.0 0.0 0.00 0.00 0.00 70 1014.3
20260903044539 83 333 0.0 0.0 0.00 0.00 0.00 69 1014.2
20260903044040 83 333 0.0 0.0 0.00 0.00 0.00 68 1014.0
20260903043547 83 331 0.0 0.0 0.00 0.00 0.00 68 1014.0
20260903043036 84 331 0.0 0.0 0.00 0.00 0.00 68 1014.0
20260903042544 84 332 0.0 0.0 0.00 0.00 0.00 67 1014.0
20260903042030 84 331 0.0 0.0 0.00 0.00 0.00 67 1014.0
20260903041601 84 332 0.0 0.0 0.00 0.00 0.00 67 1014.1
20260903041028 84 333 0.0 0.0 0.00 0.00 0.00 66 1014.1
20260903040604 84 332 0.0 0.0 0.00 0.00 0.00 66 1014.1
20260903040035 85 333 0.0 0.0 0.00 0.00 0.00 66 1014.0
20260903035546 85 331 0.0 0.0 0.00 0.00 0.00 65 1014.1
20260903035034 85 332 0.0 0.0 0.00 0.00 0.00 65 1014.0
20260903034542 85 332 0.0 0.0 0.00 0.00 0.00 65 1014.0
20260903034033 85 332 0.0 0.0 0.00 0.00 0.00 65 1014.0
20260903033539 85 333 0.0 0.0 0.00 0.00 0.00 65 1014.0
20260903033045 86 333 0.0 0.0 0.00 0.00 0.00 64 1014.0
20260903032537 86 333 0.0 0.0 0.00 0.00 0.00 64 1014.1
20260903032030 86 333 0.0 0.0 0.00 0.00 0.00 64 1014.0
20260903031540 86 333 0.0 0.0 0.00 0.00 0.00 63 1014.1
20260903031030 86 332 0.0 0.0 0.00 0.00 0.00 63 1013.9
20260903030539 87 333 0.0 0.0 0.00 0.00 0.00 62 1014.0
20260903030045 87 332 0.0 0.0 0.00 0.00 0.00 62 1013.8
20260903025559 87 331 0.0 0.0 0.00 0.00 0.00 61 1013.8
20260903025046 88 332 0.0 0.0 0.00 0.00 0.00 61 1013.7
20260903024537 88 333 0.0 0.0 0.00 0.00 0.00 60 1013.8
20260903024049 88 333 0.0 0.0 0.00 0.00 0.00 60 1013.7
20260903023536 88 333 0.0 0.0 0.00 0.00 0.00 59 1013.7
20260903023044 88 332 0.0 0.0 0.00 0.00 0.00 59 1013.5
20260903022541 88 332 0.0 0.0 0.00 0.00 0.00 59 1013.3
20260903022049 88 332 0.0 0.0 0.00 0.00 0.00 59 1013.2
20260903021604 89 331 0.0 0.0 0.00 0.00 0.00 58 1013.1
20260903021037 89 332 0.0 0.0 0.00 0.00 0.00 58 1013.1
20260903020532 89 331 0.0 0.0 0.00 0.00 0.00 58 1013.0
20260903020043 89 331 0.0 0.0 0.00 0.00 0.00 58 1012.9
20260903015530 89 333 0.0 0.0 0.00 0.00 0.00 57 1012.8
20260903015041 89 332 0.0 0.0 0.00 0.00 0.00 57 1012.8
20260903014549 90 331 0.0 0.0 0.00 0.00 0.00 57 1012.7
20260903014057 90 332 0.0 0.0 0.00 0.00 0.00 57 1012.7
20260903013544 90 332 0.0 0.0 0.00 0.00 0.00 56 1012.6
20260903013031 90 331 0.0 0.0 0.00 0.00 0.00 56 1012.6
20260903012545 90 331 0.0 0.0 0.00 0.00 0.00 56 1012.6
20260903012052 91 331 0.0 0.0 0.00 0.00 0.00 57 1012.6
20260903011542 91 332 0.0 0.0 0.00 0.00 0.00 57 1012.5
20260903011037 91 332 0.0 0.0 0.00 0.00 0.00 57 1012.5
20260903010548 91 332 0.0 0.0 0.00 0.00 0.00 56 1012.4
20260903010036 92 331 0.0 0.0 0.00 0.00 0.00 56 1012.3
20260903005545 92 331 0.0 0.0 0.00 0.00 0.00 56 1012.4
20260903005035 92 331 0.0 0.0 0.00 0.00 0.00 55 1012.4
20260903004529 92 331 0.0 0.0 0.00 0.00 0.00 55 1012.3
20260903004102 92 331 0.0 0.0 0.00 0.00 0.00 55 1012.3
20260903003549 92 331 0.0 0.0 0.00 0.00 0.00 54 1012.3
20260903003057 93 331 0.0 0.0 0.00 0.00 0.00 54 1012.2
20260903002607 94 330 0.0 0.0 0.00 0.00 0.00 52 1012.2
20260903002032 94 331 0.0 0.0 0.00 0.00 0.00 50 1012.1
20260903001527 94 331 0.0 0.0 0.00 0.00 0.00 49 1012.0
20260903001038 95 331 0.0 0.0 0.00 0.00 0.00 49 1012.1
20260903000546 95 331 0.0 0.0 0.00 0.00 0.00 49 1012.0
20260903000037 95 331 0.0 0.0 0.00 0.00 0.00 49 1012.0
20260902235551 95 331 0.0 0.0 0.00 0.00 0.00 49 1012.0
20260902235106 96 331 0.0 0.0 0.00 0.00 0.00 48 1012.0
20260902234537 96 331 0.0 0.0 0.00 0.00 0.00 47 1011.9
20260902234050 97 331 0.0 0.0 0.00 0.00 0.00 46 1011.9
20260902233536 97 331 0.0 0.0 0.00 0.00 0.00 46 1011.9
20260902233110 97 331 0.0 0.0 0.00 0.00 0.00 45 1011.8
20260902232541 97 330 0.0 0.0 0.00 0.00 0.00 45 1011.8
20260902232049 97 329 0.0 0.0 0.00 0.00 0.00 45 1011.8
20260902231542 97 331 0.0 0.0 0.00 0.00 0.00 45 1011.8
20260902231032 97 331 0.0 0.0 0.00 0.00 0.00 44 1011.9
20260902230539 97 331 0.0 0.0 0.00 0.00 0.00 44 1011.9
20260902230049 98 331 0.0 0.0 0.00 0.00 0.00 44 1011.9
20260902225601 98 329 0.0 0.0 0.00 0.00 0.00 43 1011.9
20260902225027 98 331 0.0 0.0 0.00 0.00 0.00 42 1011.9
20260902224538 98 330 0.0 0.0 0.00 0.00 0.00 42 1011.9
20260902224052 98 331 0.0 0.0 0.00 0.00 0.00 42 1011.9
20260902223544 98 331 0.0 0.0 0.00 0.00 0.00 42 1011.9
20260902223038 98 331 0.0 0.0 0.00 0.00 0.00 41 1011.9
20260902222531 99 329 0.0 0.0 0.00 0.00 0.00 41 1012.0
20260902222106 99 329 0.0 0.0 0.00 0.00 0.00 41 1011.9
20260902221536 99 331 0.0 0.0 0.00 0.00 0.00 41 1012.0
20260902221048 99 330 0.0 0.0 0.00 0.00 0.00 40 1012.0
20260902220545 99 336 0.0 0.0 0.00 0.00 0.00 40 1011.9
20260902220032 99 330 0.0 0.0 0.00 0.00 0.00 40 1012.1
20260902215542 99 329 0.0 0.0 0.00 0.00 0.00 41 1012.1
20260902215030 99 329 0.0 0.0 0.00 0.00 0.00 42 1012.2
20260902214603 99 328 0.0 0.0 0.00 0.00 0.00 41 1012.2
20260902214033 99 329 0.0 0.0 0.00 0.00 0.00 41 1012.2
20260902213541 98 330 0.0 0.0 0.00 0.00 0.00 42 1012.2
20260902213049 98 331 0.0 0.0 0.00 0.00 0.00 43 1012.3
20260902212535 98 329 0.0 0.0 0.00 0.00 0.00 42 1012.4
20260902212109 99 331 0.0 0.0 0.00 0.00 0.00 43 1012.4
20260902211536 98 329 0.0 0.0 0.00 0.00 0.00 44 1012.5
20260902211042 98 329 0.0 0.0 0.00 0.00 0.00 44 1012.6
20260902210540 98 331 0.0 0.0 0.00 0.00 0.00 43 1012.7
20260902210048 99 329 0.0 0.0 0.00 0.00 0.00 42 1012.7
20260902205637 99 330 0.0 0.0 0.00 0.00 0.00 43 1012.7
20260902205110 99 331 0.0 0.0 0.00 0.00 0.00 43 1012.8
20260902204601 98 332 0.0 0.0 0.00 0.00 0.00 44 1012.9
20260902204120 98 329 0.0 0.0 0.00 0.00 0.00 44 1012.9
20260902203610 98 330 0.0 0.0 0.00 0.00 0.00 44 1013.0
20260902203102 98 329 0.0 0.0 0.00 0.00 0.00 44 1013.1
20260902202617 98 329 0.0 0.0 0.00 0.00 0.00 44 1013.2
20260902202119 98 330 0.0 0.0 0.00 0.00 0.00 44 1013.2
20260902201543 98 330 0.0 0.0 0.00 0.00 0.00 45 1013.4
20260902201038 98 330 0.0 0.0 0.00 0.00 0.00 46 1013.5
20260902200608 97 332 0.0 0.0 0.00 0.00 0.00 46 1013.5
20260902200053 97 329 0.0 0.0 0.00 0.00 0.00 46 1013.6
20260902195549 97 329 0.0 0.0 0.00 0.00 0.00 46 1013.7
20260902195056 97 329 0.0 0.0 0.00 0.00 0.00 46 1013.8
20260902194544 97 330 0.0 0.0 0.00 0.00 0.00 47 1013.8
20260902194050 97 331 0.0 0.0 0.00 0.00 0.00 45 1013.9
20260902193543 97 330 0.0 0.0 0.00 0.00 0.00 46 1014.0
20260902193035 97 331 0.0 0.0 0.00 0.00 0.00 47 1014.1
20260902192542 96 329 0.0 0.0 0.00 0.00 0.00 48 1014.1
20260902192101 96 329 0.0 0.0 0.00 0.00 0.00 48 1014.2
20260902191535 97 329 0.0 0.0 0.00 0.00 0.00 47 1014.3
20260902191042 97 329 0.0 0.0 0.00 0.00 0.00 47 1014.3
20260902190534 97 329 0.0 0.0 0.00 0.00 0.00 48 1014.4
20260902190041 97 331 0.0 0.0 0.00 0.00 0.00 48 1014.4
20260902185533 98 331 0.0 0.0 0.00 0.00 0.00 47 1014.5
20260902185027 97 331 0.0 0.0 0.00 0.00 0.00 47 1014.5
20260902184558 97 328 0.0 0.0 0.00 0.00 0.00 47 1014.6
20260902184046 96 330 0.0 0.0 0.00 0.00 0.00 48 1014.8
20260902183536 96 329 0.0 0.0 0.00 0.00 0.00 48 1014.9
20260902183043 96 331 0.0 0.0 0.00 0.00 0.00 49 1015.0
20260902182530 96 331 0.0 0.0 0.00 0.00 0.00 49 1015.0
20260902182038 96 331 0.0 0.0 0.00 0.00 0.00 50 1015.1
20260902181547 96 331 0.0 0.0 0.00 0.00 0.00 50 1015.3
20260902181037 95 331 0.0 0.0 0.00 0.00 0.00 50 1015.4
20260902180530 95 336 0.0 0.0 0.00 0.00 0.00 51 1015.4
20260902180041 95 336 0.0 0.0 0.00 0.00 0.00 50 1015.6
20260902175531 95 329 0.0 0.0 0.00 0.00 0.00 52 1015.7
20260902175058 94 331 0.0 0.0 0.00 0.00 0.00 52 1015.8
20260902174528 94 330 0.0 0.0 0.00 0.00 0.00 51 1015.8
20260902174046 94 329 0.0 0.0 0.00 0.00 0.00 52 1016.0
20260902173533 94 332 0.0 0.0 0.00 0.00 0.00 53 1016.0
20260902173043 93 330 0.0 0.0 0.00 0.00 0.00 54 1016.0
20260902172530 93 332 0.0 0.0 0.00 0.00 0.00 53 1016.1
20260902172038 93 330 0.0 0.0 0.00 0.00 0.00 54 1016.3
20260902171528 93 332 0.0 0.0 0.00 0.00 0.00 55 1016.3
20260902171045 93 330 0.0 0.0 0.00 0.00 0.00 55 1016.4
20260902170531 92 331 0.0 0.0 0.00 0.00 0.00 58 1016.4
20260902170043 92 330 0.0 0.0 0.00 0.00 0.00 57 1016.6
20260902165533 92 332 0.0 0.0 0.00 0.00 0.00 58 1016.7
20260902165030 91 330 0.0 0.0 0.00 0.00 0.00 58 1016.6
20260902164539 91 331 0.0 0.0 0.00 0.00 0.00 59 1016.7
20260902164033 91 330 0.0 0.0 0.00 0.00 0.00 59 1016.7
20260902163545 91 331 0.0 0.0 0.00 0.00 0.00 59 1016.8
20260902163033 91 331 0.0 0.0 0.00 0.00 0.00 60 1016.9
20260902162544 91 330 0.0 0.0 0.00 0.00 0.00 61 1016.9
20260902162030 91 330 0.0 0.0 0.00 0.00 0.00 61 1017.0
20260902161544 90 332 0.0 0.0 0.00 0.00 0.00 61 1017.0
20260902161037 90 330 0.0 0.0 0.00 0.00 0.00 61 1017.0
20260902160546 90 331 0.0 0.0 0.00 0.00 0.00 61 1017.0
20260902160036 90 332 0.0 0.0 0.00 0.00 0.00 63 1017.1
20260902155547 89 332 0.0 0.0 0.00 0.00 0.00 63 1017.1
20260902155034 89 330 0.0 0.0 0.00 0.00 0.00 63 1017.1
20260902154545 88 331 0.0 0.0 0.00 0.00 0.00 64 1017.0
20260902154034 88 331 0.0 0.0 0.00 0.00 0.00 65 1017.0
20260902153546 88 330 0.0 0.0 0.00 0.00 0.00 66 1017.0
20260902153033 88 331 0.0 0.0 0.00 0.00 0.00 66 1016.9
20260902152530 88 331 0.0 0.0 0.00 0.00 0.00 66 1016.8
20260902152059 88 331 0.0 0.0 0.00 0.00 0.00 67 1016.8
20260902151545 88 332 0.0 0.0 0.00 0.00 0.00 67 1016.8
20260902151043 87 331 0.0 0.0 0.00 0.00 0.00 68 1016.8
20260902150530 87 332 0.0 0.0 0.00 0.00 0.00 68 1016.7
20260902150106 87 332 0.0 0.0 0.00 0.00 0.00 69 1016.7
20260902145542 87 331 0.0 0.0 0.00 0.00 0.00 69 1016.7
20260902145033 86 331 0.0 0.0 0.00 0.00 0.00 70 1016.7
20260902144544 86 333 0.0 0.0 0.00 0.00 0.00 71 1016.7
20260902144055 85 334 0.0 0.0 0.00 0.00 0.00 71 1016.7
20260902143605 85 333 0.0 0.0 0.00 0.00 0.00 71 1016.7
20260902143040 85 333 0.0 0.0 0.00 0.00 0.00 72 1016.7
20260902142530 84 333 0.0 0.0 0.00 0.00 0.00 72 1016.7
20260902142037 84 333 0.0 0.0 0.00 0.00 0.00 72 1016.7
20260902141549 84 333 0.0 0.0 0.00 0.00 0.00 72 1016.7
20260902141036 84 331 0.0 0.0 0.00 0.00 0.00 72 1016.7
20260902140527 84 333 0.0 0.0 0.00 0.00 0.00 72 1016.6
20260902140109 83 333 0.0 0.0 0.00 0.00 0.00 73 1016.7
20260902135536 83 333 0.0 0.0 0.00 0.00 0.00 73 1016.7
20260902135046 83 332 0.0 0.0 0.00 0.00 0.00 73 1016.7
20260902134534 83 332 0.0 0.0 0.00 0.00 0.00 74 1016.7
20260902134041 82 333 0.0 0.0 0.00 0.00 0.00 74 1016.7
20260902133534 82 331 0.0 0.0 0.00 0.00 0.00 75 1016.7
20260902133027 82 333 0.0 0.0 0.00 0.00 0.00 75 1016.7
20260902132539 82 334 0.0 0.0 0.00 0.00 0.00 75 1016.7
20260902132109 81 333 0.0 0.0 0.00 0.00 0.00 76 1016.6
20260902131536 81 333 0.0 0.0 0.00 0.00 0.00 76 1016.6
20260902131043 80 332 0.0 0.0 0.00 0.00 0.00 77 1016.4
20260902130554 80 332 0.0 0.0 0.00 0.00 0.00 77 1016.4
20260902130039 79 331 0.0 0.0 0.00 0.00 0.00 78 1016.3
20260902125551 79 333 0.0 0.0 0.00 0.00 0.00 78 1016.3
20260902125040 79 332 0.0 0.0 0.00 0.00 0.00 79 1016.3
20260902124533 78 333 0.0 0.0 0.00 0.00 0.00 79 1016.3
20260902124040 78 333 0.0 0.0 0.00 0.00 0.00 80 1016.3
20260902123532 78 333 0.0 0.0 0.00 0.00 0.00 80 1016.2
20260902123046 77 333 0.0 0.0 0.00 0.00 0.00 80 1016.2
20260902122539 77 333 0.0 0.0 0.00 0.00 0.00 80 1016.1
20260902122046 77 333 0.0 0.0 0.00 0.00 0.00 80 1016.1
20260902121542 77 333 0.0 0.0 0.00 0.00 0.00 80 1016.1
20260902121030 77 333 0.0 0.0 0.00 0.00 0.00 80 1016.1
20260902120542 77 333 0.0 0.0 0.00 0.00 0.00 80 1016.0
20260902120028 77 333 0.0 0.0 0.00 0.00 0.00 80 1016.0
20260902115602 77 333 0.0 0.0 0.00 0.00 0.00 80 1016.0
20260902115028 77 333 0.0 0.0 0.00 0.00 0.00 80 1016.1
20260902114601 77 333 0.0 0.0 0.00 0.00 0.00 80 1016.0
20260902114033 77 333 0.0 0.0 0.00 0.00 0.00 80 1015.9
20260902113530 77 333 0.0 0.0 0.00 0.00 0.00 80 1015.9
20260902113038 77 333 0.0 0.0 0.00 0.00 0.00 80 1015.9
20260902112546 77 333 0.0 0.0 0.00 0.00 0.00 80 1015.9
20260902112038 77 333 0.0 0.0 0.00 0.00 0.00 80 1016.0
20260902111547 77 333 0.0 0.0 0.00 0.00 0.00 80 1016.0
20260902111036 78 333 0.0 0.0 0.00 0.00 0.00 79 1016.0
20260902110543 78 333 0.0 0.0 0.00 0.00 0.00 79 1016.0
20260902110031 78 333 0.0 0.0 0.00 0.00 0.00 79 1015.9
20260902105542 78 333 0.0 0.0 0.00 0.00 0.00 78 1016.0
20260902105029 78 333 0.0 0.0 0.00 0.00 0.00 78 1016.0
20260902104536 78 333 0.0 0.0 0.00 0.00 0.00 78 1016.0
20260902104044 79 333 0.0 0.0 0.00 0.00 0.00 78 1016.0